Flag for U.S.A. Weather past 2 weeks in Ocala, Florida, U.S.A.

Now
77 °F

Passing clouds.


Feels Like: 79 °F
Forecast: 70 / 92 °F
Wind: 3 mph from Northwest

Location: Ocala Municipal

Current Time: Jul 30, 2014 at 1:45:39 AM

Latest Report: Jul 30, 2014 at 1:15 AM


Visibility: 10 mi

Pressure: 29.97 "Hg

Humidity: 65%

Dew point: 64 °F

Location of OcalaLocation

Historic Weather in Ocala — Graph

°F

Ocala temperature yesterday

Maximum temperature yesterday: 91 °F (at 1:50 PM)
Minimum temperature yesterday: 77 °F (at 6:35 AM)
Average temperature yesterday: 82 °F

Past Weeks' High & Low Weather Summary

 TemperatureHumidityPressure
High91 °F (Jul 19, 2:50 PM)100% (Jul 17, 6:50 AM)30.11 "Hg (Jul 17, 6:50 AM)
Low70 °F (Jul 18, 5:15 AM)43% (Jul 18, 1:50 PM)29.90 "Hg (Jul 16, 4:35 AM)
Average78 °F70%30.03 "Hg
* Reported Jul 15 12:15 AM — Jul 30 12:35 AM, Ocala, Weather by CustomWeather, © 2014

Note: Actual official high and low records may vary slightly from our data, if they occured in-between our weather recording intervals... More about our weather records

Advertising

Ocala weather history for previous 24 hours

 ConditionsComfort  
Time TempWeatherWind HumidityBarometerVisibility
12:35 AM
Jul 30
79 °FClear.5 mph61%29.97 "Hg10 mi
12:15 AM79 °FClear.7 mph61%29.97 "Hg10 mi
11:55 PM
Jul 29
81 °FClear.6 mph58%29.97 "Hg10 mi
11:35 PM81 °FPassing clouds.5 mph62%29.96 "Hg10 mi
10:55 PM81 °FPassing clouds.5 mph62%29.96 "Hg10 mi
10:35 PM81 °FPassing clouds.3 mph66%29.96 "Hg10 mi
10:15 PM81 °FPassing clouds.5 mph66%29.96 "Hg10 mi
9:55 PM81 °FClear.5 mph66%29.96 "Hg10 mi
9:35 PM81 °FClear.5 mph66%29.95 "Hg10 mi
9:15 PM81 °FSunny.6 mph66%29.94 "Hg10 mi
8:55 PM82 °FSunny.5 mph62%29.94 "Hg10 mi
8:35 PM82 °FSunny.5 mph58%29.93 "Hg10 mi
8:15 PM84 °FSunny.6 mph55%29.93 "Hg10 mi
7:55 PM86 °FSunny.6 mph52%29.92 "Hg10 mi
6:50 PM90 °FPassing clouds.10 mph49%29.92 "Hg10 mi
5:50 PM91 °FScattered clouds.10 mph49%29.92 "Hg10 mi
4:50 PM84 °FScattered clouds.16 mph62%29.92 "Hg10 mi
3:50 PM91 °FScattered clouds.12 mph52%29.91 "Hg10 mi
2:50 PM91 °FScattered clouds.14 mph49%29.93 "Hg10 mi
1:50 PM91 °FScattered clouds.12 mph49%29.95 "Hg10 mi
12:50 PM90 °FScattered clouds.12 mph55%29.95 "Hg10 mi
11:50 AM88 °FPassing clouds.7 mph59%29.97 "Hg10 mi
10:50 AM88 °FPassing clouds.8 mph55%29.98 "Hg10 mi
9:50 AM84 °FSunny.9 mph62%29.96 "Hg10 mi
8:50 AM82 °FFog.7 mph66%29.94 "Hg5 mi
7:50 AM79 °FFog.3 mph74%29.94 "Hg5 mi
6:50 AM79 °FFog.No wind74%29.93 "Hg5 mi
6:35 AM77 °FClear.3 mph79%29.93 "Hg9 mi
6:15 AM79 °FClear.No wind74%29.92 "Hg10 mi
5:55 AM79 °FClear.No wind74%29.92 "Hg10 mi
5:35 AM79 °FPassing clouds.5 mph74%29.92 "Hg10 mi
5:15 AM79 °FPassing clouds.3 mph74%29.92 "Hg10 mi
4:55 AM79 °FPassing clouds.No wind74%29.93 "Hg10 mi
4:35 AM79 °FPassing clouds.7 mph74%29.92 "Hg10 mi
4:15 AM79 °FClear.6 mph74%29.93 "Hg10 mi
3:55 AM79 °FClear.6 mph74%29.93 "Hg10 mi
3:35 AM79 °FPassing clouds.5 mph74%29.94 "Hg10 mi
3:15 AM79 °FClear.3 mph74%29.94 "Hg10 mi
2:55 AM79 °FClear.5 mph74%29.95 "Hg10 mi
2:35 AM79 °FClear.5 mph74%29.96 "Hg10 mi
2:15 AM79 °FClear.5 mph74%29.96 "Hg10 mi
1:55 AM79 °FClear.7 mph74%29.96 "Hg10 mi
1:35 AM79 °FClear.6 mph74%29.96 "Hg10 mi
Weather by CustomWeather, © 2014

See weather overviewHow to use our weather pages